Content
SEND FEEDBACK

Daily
Averages
Monthly
Summary
United States of America

POTTS JUNCTION, GUAM


Home > North America > United States > Guam
Elevation: 110 meters     Latitude: 13 33N     Longitude: 144 50E

WEATHER
 
SELECT A DAY
Number of Records: 209,044;   Date Range: 1/1/95 - 7/29/14
 
SHARE

PRINT THIS DATA

[ ← Previous Day ]
WEATHER ALMANAC - 20 JANUARY, 2013
[ Next Day → ]
[ °F ]   °C
Weather ElementAverageHighLow
Temperature25.6 °C28 °C (2:17 pm)24 °C (7:49 pm)
Dewpoint23.8 °C25 °C (12:54 pm)22.2 °C (3:54 am)
Humidity89.9 %100 % (7:49 pm)79 % (2:17 pm)
Barometer1013.2 hPa1016.3 hPa (9:15 am)1011.2 hPa (2:54 pm)
Wind Speed28.6 km/h48.1 km/h (3:19 pm)
Wind Gust62.9 km/h (3:19 pm)
Weather ElementAverage
Visibility11.7 km
Wind DirectionNE (40.7 °)

Weather ElementTotal
Precipitation6.6 mm
Cooling Degree Days7.7 (Base 18.3)
Growing Degree Days16 (Base 10)
Averaged from 55 records on 20 January, 2013
WEATHER CONDITIONS BREAKOUT
WIND DIRECTION BREAKOUT
WEATHER BY HOUR - 20 JANUARY, 2013
[ °F ]   °C
Local TimeTemperatureDewpointHumidityBarometerVisibilityWind DirectionWind SpeedGust SpeedPrecipitationEventsConditions
1:01 AM26 °C24 °C89 %1013.2 hPa12.9 kmENE (70°)16.7 km/h0.25 mmRainLight Rain
1:14 AM26 °C24 °C89 %1013.2 hPa16.1 kmENE (60°)18.5 km/h0.25 mmScattered Clouds
1:54 AM25.6 °C23.3 °C87 %1012.2 hPa16.1 kmENE (60°)16.7 km/h0.25 mmScattered Clouds
2:54 AM25.6 °C23.3 °C87 %1011.9 hPa16.1 kmNE (50°)22.2 km/hScattered Clouds
3:54 AM25 °C22.2 °C84 %1011.9 hPa16.1 kmNE (50°)16.7 km/hClear
4:54 AM25 °C22.8 °C88 %1012.5 hPa16.1 kmNE (50°)16.7 km/hClear
5:54 AM25.6 °C23.3 °C87 %1012.9 hPa16.1 kmNNE (30°)14.8 km/hOvercast
6:54 AM25.6 °C23.3 °C87 %1013.5 hPa16.1 kmNNE (20°)14.8 km/hMostly Cloudy
7:54 AM25.6 °C23.3 °C87 %1014.6 hPa12.9 kmNNE (30°)22.2 km/h0 mmRainLight Rain
8:54 AM25.6 °C23.9 °C90 %1015.2 hPa8 kmNNE (20°)22.2 km/h0 mmRainLight Rain
9:04 AM25 °C24 °C94 %1015.9 hPa4 kmNNE (30°)20.4 km/h38.9 km/h0.25 mmRainRain
9:15 AM26 °C24 °C89 %1016.3 hPa12.9 kmNNE (30°)20.4 km/h0.25 mmRainLight Rain
9:26 AM26 °C24 °C89 %1016.3 hPa16.1 kmNNE (20°)20.4 km/h0.25 mmOvercast
9:54 AM25.6 °C24.4 °C93 %1015.6 hPa16.1 kmNNE (20°)27.8 km/h37 km/hOvercast
10:16 AM25 °C23 °C89 %1016.3 hPa6.4 kmNNE (30°)31.5 km/h38.9 km/h0 mmRainRain
10:43 AM26 °C24 °C89 %1015.9 hPa9.7 kmNNE (30°)22.2 km/h0.51 mmRainLight Rain
10:54 AM25.6 °C23.9 °C90 %1015.2 hPa9.7 kmNNE (30°)25.9 km/h38.9 km/h0.51 mmOvercast
11:06 AM26 °C24 °C89 %1015.6 hPa4 kmNNE (30°)25.9 km/h0 mmRainRain
11:09 AM26 °C24 °C89 %1015.6 hPa6.4 kmNNE (30°)25.9 km/h0 mmRainLight Rain
11:54 AM25 °C23.9 °C94 %1014.2 hPa9.7 kmNNE (20°)29.6 km/h38.9 km/h0.25 mmRainLight Rain
12:10 PM25 °C24 °C94 %1014.6 hPa9.7 kmNNE (30°)27.8 km/h40.7 km/h0 mmRainLight Rain
12:34 PM26 °C24 °C89 %1014.2 hPa11.3 kmNNE (20°)33.3 km/h44.4 km/h0 mmRainLight Rain
12:54 PM26.7 °C25 °C90 %1013.2 hPa12.9 kmNNE (30°)35.2 km/h48.1 km/h0 mmRainLight Rain
1:41 PM27 °C24 °C84 %1012.5 hPa14.5 kmNNE (30°)35.2 km/h44.4 km/h0 mmMostly Cloudy
1:54 PM27.8 °C24.4 °C82 %1011.5 hPa16.1 kmNNE (20°)35.2 km/h42.6 km/h0 mmMostly Cloudy
2:17 PM28 °C24 °C79 %1012.2 hPa16.1 kmNNE (30°)31.5 km/h46.3 km/hMostly Cloudy
2:54 PM26.7 °C24.4 °C87 %1011.2 hPa8 kmNE (40°)35.2 km/h0 mmRainLight Rain
3:09 PM27 °C24 °C84 %1011.5 hPa16.1 kmNE (40°)42.6 km/h48.1 km/h0 mmMostly Cloudy
3:19 PM27 °C24 °C84 %1011.9 hPa6.4 kmNE (50°)48.1 km/h62.9 km/h0 mmRainRain
3:33 PM26 °C24 °C89 %1011.5 hPa8 kmNE (40°)35.2 km/h51.8 km/h0 mmRainLight Rain
3:54 PM26.1 °C24.4 °C90 %1011.2 hPa12.9 kmNE (40°)29.6 km/h42.6 km/h0 mmRainLight Rain
4:47 PM27 °C24 °C84 %1011.9 hPa16.1 kmNE (50°)37 km/h46.3 km/h0 mmScattered Clouds
4:54 PM26.7 °C24.4 °C87 %1011.2 hPa16.1 kmNE (50°)37 km/h0 mmScattered Clouds
5:10 PM26 °C24 °C89 %1012.2 hPa16.1 kmNE (50°)24.1 km/h42.6 km/hMostly Cloudy
5:31 PM26 °C24 °C89 %1012.2 hPa11.3 kmNE (50°)29.6 km/h40.7 km/h0 mmOvercast
5:54 PM25.6 °C23.9 °C90 %1011.9 hPa16.1 kmNE (50°)27.8 km/h42.6 km/h0 mmMostly Cloudy
6:01 PM26 °C24 °C89 %1012.5 hPa6.4 kmNE (50°)37 km/h44.4 km/h0 mmRainLight Rain
6:14 PM25 °C24 °C94 %1012.5 hPa16.1 kmNE (40°)29.6 km/h0 mmScattered Clouds
6:54 PM25.6 °C23.3 °C87 %1012.2 hPa16.1 kmNE (50°)22.2 km/h0 mmMostly Cloudy
7:03 PM26 °C23 °C83 %1013.2 hPa11.3 kmNE (50°)33.3 km/h53.8 km/h0 mmRainLight Rain
7:49 PM24 °C24 °C100 %1013.5 hPa6.4 kmNE (50°)42.6 km/h53.8 km/h0.25 mmRainLight Rain
7:54 PM24.4 °C23.9 °C97 %1012.9 hPa11.3 kmNE (50°)33.3 km/h53.8 km/h0.25 mmRainLight Rain
8:30 PM25 °C24 °C94 %1013.5 hPa9.7 kmNE (50°)31.5 km/h50.1 km/h0 mmRainLight Rain
8:41 PM25 °C24 °C94 %1013.5 hPa16.1 kmNE (50°)25.9 km/h38.9 km/h0 mmScattered Clouds
8:54 PM25 °C23.9 °C94 %1013.2 hPa11.3 kmNE (40°)37 km/h44.4 km/h0 mmScattered Clouds
9:05 PM25 °C24 °C94 %1013.9 hPa6.4 kmNE (50°)33.3 km/h42.6 km/h0 mmRainLight Rain
9:12 PM24 °C23 °C94 %1013.9 hPa6.4 kmNE (50°)35.2 km/h57.5 km/h0.25 mmRainLight Rain
9:54 PM25 °C23.9 °C94 %1013.2 hPa11.3 kmNE (50°)27.8 km/h0.25 mmRainLight Rain
10:19 PM25 °C24 °C94 %1013.5 hPa11.3 kmNE (40°)25.9 km/h0.76 mmOvercast
10:54 PM25 °C23.9 °C94 %1012.9 hPa16.1 kmNE (40°)25.9 km/h0.76 mmScattered Clouds
11:02 PM25 °C24 °C94 %1013.5 hPa16.1 kmNE (50°)27.8 km/h42.6 km/hMostly Cloudy
11:44 PM24 °C23 °C94 %1013.5 hPa4 kmNE (50°)33.3 km/h50.1 km/h0.25 mmRainRain
11:51 PM24 °C23 °C94 %1013.5 hPa4.8 kmNE (50°)33.3 km/h48.1 km/h0.51 mmRainLight Rain
11:54 PM24.4 °C23.3 °C94 %1012.9 hPa6.4 kmNE (50°)33.3 km/h44.4 km/h0.51 mmRainLight Rain
11:58 PM24 °C23 °C94 %1013.5 hPa8 kmNE (50°)27.8 km/h42.6 km/h0 mmRainLight Rain
Hourly data recorded from PGUM, located 0 kilometers away from Potts Junction, Guam







STORIES FROM OUR PARTNERS